Flag for Argentina Weather past 2 weeks in Jujuy, Jujuy, Argentina

Now
50 °F

Partly sunny.


Feels Like: 48 °F
Forecast: 36 / 63 °F
Wind: 6 mph from East

Location: Jujuy Aerodrome

Current Time: Jul 5, 2015 at 12:40:52 PM

Latest Report: Jul 5, 2015 at 12:00 PM


Visibility: N/A

Pressure: 30.01 "Hg (21.16 "Hg at 2895m altitude)

Humidity: 76%

Dew point: 43 °F

Location of JujuyLocation

Historic Weather in Jujuy — Graph

°F

Jujuy temperature yesterday

Maximum temperature yesterday: 52 °F (at 11:00 AM)
Minimum temperature yesterday: 48 °F (at 6:00 AM)
Average temperature yesterday: 50 °F

Past Weeks' High & Low Weather Summary

 TemperatureHumidityPressure
High73 °F (Jun 29, 4:00 PM)100% (Jun 27, 1:00 AM)30.39 "Hg (Jun 27, 1:00 AM)
Low37 °F (Jun 24, 8:00 AM)28% (Jun 22, 5:00 PM)29.80 "Hg (Jun 29, 3:00 PM)
Average55 °F78%30.11 "Hg
* Reported Jun 20 11:00 AM — Jul 5 11:00 AM, Jujuy, Weather by CustomWeather, © 2015

Note: Actual official high and low records may vary slightly from our data, if they occured in-between our weather recording intervals... More about our weather records

Advertising

Jujuy weather history for previous 24 hours

 ConditionsComfort  
Time TempWeatherWind HumidityBarometerVisibility
11:00 AM
Sun, Jul 5
48 °FOvercast.8 mph87%30.01 "HgN/A
10:00 AM48 °FMostly cloudy.7 mph82%30.04 "HgN/A
9:00 AM46 °FMore clouds than sun.3 mph93%30.04 "HgN/A
8:00 AM46 °FMore clouds than sun.No wind87%30.04 "HgN/A
7:00 AM46 °FOvercast.No wind87%30.04 "HgN/A
6:00 AM46 °FOvercast.No wind87%30.04 "HgN/A
4:00 AM48 °FMostly cloudy.2 mph87%30.07 "HgN/A
3:00 AM48 °FMostly cloudy.No wind87%30.09 "HgN/A
2:00 AM48 °FMostly cloudy.3 mph87%30.09 "HgN/A
1:00 AM48 °FMostly cloudy.2 mph87%30.12 "HgN/A
12:00 AM48 °FMostly cloudy.3 mph87%30.12 "Hg5 mi
11:00 PM
Sat, Jul 4
48 °FMostly cloudy.6 mph87%30.15 "Hg5 mi
10:00 PM50 °FMostly cloudy.5 mph82%30.15 "Hg5 mi
9:00 PM50 °FMostly cloudy.No wind82%30.15 "Hg5 mi
8:00 PM50 °FMostly cloudy.5 mph76%30.15 "Hg5 mi
7:00 PM50 °FMostly cloudy.7 mph71%30.12 "Hg5 mi
6:00 PM50 °FMostly cloudy.6 mph76%30.15 "HgN/A
5:00 PM50 °FMore clouds than sun.8 mph76%30.12 "HgN/A
4:00 PM50 °FMore clouds than sun.9 mph82%30.15 "HgN/A
3:00 PM50 °FMore clouds than sun.7 mph82%30.15 "HgN/A
2:00 PM52 °FBroken clouds.10 mph77%30.18 "HgN/A
1:00 PM52 °FMore clouds than sun.12 mph72%30.24 "HgN/A
12:00 PM52 °FMore clouds than sun.8 mph77%30.27 "HgN/A
Weather by CustomWeather, © 2015

See weather overviewHow to use our weather pages